Regional Weather Roundup
Issued by NWS Newport/Morehead, NC

Current Version | Previous Version | Graphics & Text | Print | Product List | Glossary Off
Versions: 1 2 3 4 5 6 7 8 9 10 11 12 13 14 15 16 17 18 19 20 21 22 23 24 25 26 27 28 29 30 31 32 33 34 35 36 37 38 39 40 41 42 43 44 45 46 47 48 49 50

967
ASUS42 KMHX 280413
RWRMHX
WEATHER ROUNDUP FOR EASTERN NORTH CAROLINA
NATIONAL WEATHER SERVICE NEWPORT/MOREHEAD CITY NC
1100 PM EST MON FEB 27 2017

NOTE: "FAIR" INDICATES FEW OR NO CLOUDS BELOW 12,000 FEET
WITH NO SIGNIFICANT WEATHER AND/OR OBSTRUCTIONS TO VISIBILITY

NCZ015>017-031-032-045>047-102-103-280500-
NORTH COAST

CITY           SKY/WX    TMP DP  RH WIND       PRES   REMARKS
EDENTON        CLOUDY    59  49  70 SE5       30.39F
ELIZABETH CITY CLOUDY    54  49  83 E5        30.39F
KITTY HAWK     NOT AVBL
MANTEO         CLOUDY    58  54  87 SE6       30.39F

$$

NCZ045>047-081-094-103-104-280500-
CENTRAL COAST

CITY           SKY/WX    TMP DP  RH WIND       PRES   REMARKS
FRISCO         PTCLDY    69  52  54 S17       30.38S

$$

NCZ095-097-098-100-101-280500-
SOUTHERN COAST

CITY           SKY/WX    TMP DP  RH WIND       PRES   REMARKS
BEAUFORT       CLOUDY    65  57  75 SE5       30.36F
CEDAR ISLAND   NOT AVBL
JACKSONVILLE   CLOUDY    58  54  86 E8        30.32F
PINEY ISLAND   CLEAR    N/A N/A N/A N3        30.37S
WILMINGTON     CLOUDY    64  54  69 SE8       30.31F


$$

NCZ011>013-027>030-043-044-078>080-089-090>093-098-280500-
COASTAL PLAIN

CITY           SKY/WX    TMP DP  RH WIND       PRES   REMARKS
AHOSKIE          N/A     55  45  68 CALM      30.38S
CLINTON        PTCLDY    58  51  77 CALM      30.35R
ELIZABETHTOWN  PTCLDY    59  50  72 CALM      30.33R
GOLDSBORO      PTCLDY    55  52  88 E3        30.33F
GREENVILLE     PTCLDY    55  46  71 CALM      30.37F
HAVELOCK       PTCLDY    55  49  80 E5        30.36F
KENANSVILLE    PTCLDY    57  50  77 E3        30.35R
KINSTON        NOT AVBL
NEW BERN       CLEAR     55  51  86 E7        30.35F
RICHLANDS      CLOUDY    55  50  83 NE6       30.33F
ROCKY MOUNT    CLOUDY    57  48  72 SE3       30.36F
WASHINGTON     PTCLDY    54  48  81 CALM      30.38F
WHITEVILLE     CLOUDY    61  51  70 S5        30.31R

$$

AMZ130-135-150-152-154-156-158-170-250-252-270-ANZ085-086-088-633-658-670-280500-
MARINE OBSERVATIONS

STATION/POSITION TIME  TEMP    WIND        PRES    WAVE   SWELL
                       AIR SEA DIR/SP/G            HT/PER HT/PER
                 (UTC) (F)     (DEG/KT/KT) (MB)    (FT/S) (FT/S)
CHESAPEAKE LIGHT NOT AVBL
64 E VA BEACH    0350   52 50   50/  6/  6 1029.8    3/ 9   3/ 9
DUCK             0348   53 50  130/  6/  7 1028.9
2 E DUCK         0330      51                N/A     2/11
OREGON INLET     0348          130/  4/  5   N/A
13E OREGON INLT  NOT AVBL
HATTERAS CG      0348   68 62  160/ 11/ 17 1028.3
DIAMOND BUOY     0350   69 72  160/ 17/ 21 1028.7    4/ 8   2/ 8
CAPE LOOKOUT     0400   65     160/ 10/ 12 1027.7
BEAUFORT LAB     0348   65 62  180/  8/  9 1027.3
30 SE NEW RVR IN 0308   67     200/ 14/ 17 1028.1
30 SE NEW RVR IN 0343      65                N/A     4/ 8
27 SE WRIGHTSVLE 0308   67 63  150/ 12/ 17 1026.6
5 SE WRIGHTSVLE  0308   61 58  150/ 12/ 17 1026.8
225 S CAPE HAT   0350   69 70  120/ 12/ 16 1029.4    4/ 8   3/ 8
41 SE CHARLESTON 0350   70 69  130/ 17/ 19 1025.1    4/ 6   2/ 8

$$




USA.gov is the U.S. government's official web portal to all federal, state and local government web resources and services.